O3B MPOWER F3

Last updated on Wed Dec 20 2023 00:03:04 GMT+0000 (Coordinated Universal Time)

1 56368U 23059B 23352.57450286 -.00000013 00000+0 00000+0 0 9992 2 56368 0.0368 14.3505 0004830 289.5106 56.0939 5.00114441 9136
UTC large
Height (km)
Speed (km/s)
/
Latitude / Longitude
Inclination (degrees)
Orbital Period (minutes)
Azimuth
Elevation
Range (km)
Doppler Factor

Next 0 passes for location: London (51.5072 / 0.1276)

Sorry there are no passes over London.